When you browse on this site, cookies collect data to enhance your experience and personalize the content and advertising you see.
Visit our Privacy Policy to learn more. By continuing to use the site, you agree to this use of cookies and data.
  • Em Portugal
  • Lista de países
  • Para 7 dias
  • Temperatura da água
  • Mapa do tempo
  • Widgets de tempo
  • user-avatar
    Iniciar Sessão

    Previsão horária em Coleraine

    Hoje, 23 Setembro, Segunda-feira

    Tempo Temperatura Precipitação Vento Pressão Humidade
    00:00 +15°C° 0.3 mm 1 m/s 749 mmHg 96%
    01:00 +15°C° 0.2 mm 1 m/s 749 mmHg 96%
    02:00 +14°C° 0.2 mm 2 m/s 749 mmHg 97%
    03:00 +14°C° 0.2 mm 2 m/s 749 mmHg 97%
    04:00 +14°C° 0.3 mm 2 m/s 749 mmHg 97%
    05:00 +14°C° 0.3 mm 2 m/s 749 mmHg 97%
    06:00 +14°C° 0.3 mm 2 m/s 750 mmHg 96%
    07:00 +13°C° 0.3 mm 3 m/s 750 mmHg 95%
    08:00 +13°C° 0.3 mm 3 m/s 750 mmHg 93%
    09:00 +12°C° 0.3 mm 3 m/s 750 mmHg 92%
    10:00 +13°C° 0 mm 4 m/s 750 mmHg 88%
    11:00 +14°C° 0 mm 5 m/s 750 mmHg 83%
    12:00 +15°C° 0 mm 5 m/s 749 mmHg 79%
    13:00 +14°C° 0.3 mm 6 m/s 749 mmHg 83%
    14:00 +14°C° 0.3 mm 6 m/s 748 mmHg 87%
    15:00 +14°C° 0.3 mm 7 m/s 748 mmHg 91%
    16:00 +14°C° 0.3 mm 7 m/s 747 mmHg 92%
    17:00 +13°C° 0.3 mm 8 m/s 747 mmHg 93%
    18:00 +13°C° 0.3 mm 9 m/s 746 mmHg 94%
    19:00 +14°C° 0.1 mm 7 m/s 746 mmHg 94%
    20:00 +14°C° 0.1 mm 6 m/s 746 mmHg 95%
    21:00 +14°C° 0.1 mm 5 m/s 746 mmHg 96%
    22:00 +14°C° 0.2 mm 4 m/s 746 mmHg 96%
    23:00 +14°C° 0.2 mm 4 m/s 746 mmHg 96%

    Amanhã, 24 Setembro, Terça-feira

    Tempo Temperatura Precipitação Vento Pressão Humidade
    00:00 +15°C° 0.2 mm 4 m/s 746 mmHg 96%
    01:00 +14°C° 0.1 mm 4 m/s 745 mmHg 96%
    02:00 +14°C° 0.1 mm 4 m/s 745 mmHg 96%
    03:00 +14°C° 0.1 mm 4 m/s 745 mmHg 96%
    04:00 +14°C° 0 mm 3 m/s 745 mmHg 96%
    05:00 +14°C° 0 mm 3 m/s 745 mmHg 96%
    06:00 +14°C° 0 mm 3 m/s 744 mmHg 96%
    07:00 +14°C° 0.1 mm 3 m/s 744 mmHg 95%
    08:00 +16°C° 0.1 mm 3 m/s 744 mmHg 95%
    09:00 +16°C° 0.1 mm 2 m/s 744 mmHg 94%
    10:00 +16°C° 0.1 mm 2 m/s 744 mmHg 92%
    11:00 +17°C° 0.1 mm 2 m/s 744 mmHg 89%
    12:00 +17°C° 0.1 mm 2 m/s 744 mmHg 87%
    13:00 +18°C° 0 mm 3 m/s 744 mmHg 84%
    14:00 +18°C° 0 mm 3 m/s 743 mmHg 81%
    15:00 +18°C° 0 mm 3 m/s 743 mmHg 77%
    16:00 +17°C° 0 mm 2 m/s 743 mmHg 82%
    17:00 +16°C° 0 mm 2 m/s 743 mmHg 86%
    18:00 +15°C° 0 mm 2 m/s 743 mmHg 90%
    19:00 +15°C° 0 mm 2 m/s 743 mmHg 91%
    20:00 +14°C° 0 mm 1 m/s 743 mmHg 92%
    21:00 +13°C° 0 mm 1 m/s 743 mmHg 93%
    22:00 +13°C° 0 mm 1 m/s 743 mmHg 93%
    23:00 +13°C° 0 mm 1 m/s 743 mmHg 93%

    Depois de amanhã, 25 Setembro, Quarta-feira

    Tempo Temperatura Precipitação Vento Pressão Humidade
    00:00 +12°C° 0 mm 1 m/s 743 mmHg 93%
    01:00 +12°C° 0 mm 1 m/s 744 mmHg 93%
    02:00 +12°C° 0 mm 1 m/s 744 mmHg 93%
    03:00 +12°C° 0 mm 1 m/s 744 mmHg 93%
    04:00 +12°C° 0 mm 1 m/s 744 mmHg 93%
    05:00 +12°C° 0 mm 2 m/s 744 mmHg 94%
    06:00 +12°C° 0 mm 2 m/s 744 mmHg 94%
    07:00 +13°C° 0 mm 2 m/s 745 mmHg 92%
    08:00 +14°C° 0 mm 2 m/s 745 mmHg 90%
    09:00 +15°C° 0 mm 2 m/s 746 mmHg 89%
    10:00 +16°C° 0 mm 2 m/s 746 mmHg 86%
    11:00 +17°C° 0 mm 2 m/s 746 mmHg 83%
    12:00 +18°C° 0 mm 2 m/s 746 mmHg 80%
    13:00 +18°C° 0 mm 3 m/s 746 mmHg 80%
    14:00 +18°C° 0 mm 4 m/s 745 mmHg 80%
    15:00 +17°C° 0 mm 5 m/s 745 mmHg 80%
    16:00 +16°C° 0.5 mm 5 m/s 744 mmHg 85%
    17:00 +16°C° 0.5 mm 5 m/s 743 mmHg 89%
    18:00 +15°C° 0.5 mm 5 m/s 743 mmHg 94%
    19:00 +15°C° 1.9 mm 5 m/s 742 mmHg 95%
    20:00 +15°C° 1.9 mm 5 m/s 742 mmHg 95%
    21:00 +14°C° 1.9 mm 5 m/s 742 mmHg 96%
    22:00 +14°C° 0.4 mm 5 m/s 741 mmHg 95%
    23:00 +13°C° 0.4 mm 5 m/s 741 mmHg 94%

    26 Setembro, Quinta-feira

    Tempo Temperatura Precipitação Vento Pressão Humidade
    00:00 +13°C° 0.4 mm 5 m/s 741 mmHg 93%
    01:00 +12°C° 0 mm 4 m/s 741 mmHg 93%
    02:00 +11°C° 0 mm 4 m/s 742 mmHg 93%
    03:00 +10°C° 0 mm 3 m/s 742 mmHg 93%
    04:00 +11°C° 0 mm 3 m/s 742 mmHg 93%
    05:00 +11°C° 0 mm 3 m/s 742 mmHg 92%
    06:00 +11°C° 0 mm 3 m/s 742 mmHg 92%
    07:00 +11°C° 0 mm 4 m/s 742 mmHg 91%
    08:00 +12°C° 0 mm 5 m/s 742 mmHg 91%
    09:00 +12°C° 0 mm 5 m/s 742 mmHg 90%
    10:00 +11°C° 0.1 mm 6 m/s 742 mmHg 88%
    11:00 +13°C° 0.1 mm 6 m/s 742 mmHg 87%
    12:00 +14°C° 0.1 mm 6 m/s 742 mmHg 85%
    13:00 +14°C° 0.4 mm 6 m/s 742 mmHg 84%
    14:00 +14°C° 0.4 mm 6 m/s 742 mmHg 83%
    15:00 +14°C° 0.4 mm 6 m/s 741 mmHg 82%
    16:00 +13°C° 0.1 mm 6 m/s 742 mmHg 84%
    17:00 +13°C° 0.1 mm 6 m/s 742 mmHg 86%
    18:00 +12°C° 0.1 mm 5 m/s 742 mmHg 88%
    19:00 +10°C° 0 mm 5 m/s 742 mmHg 89%
    20:00 +9°C° 0 mm 5 m/s 743 mmHg 90%
    21:00 +9°C° 0 mm 5 m/s 743 mmHg 91%
    22:00 +9°C° 0 mm 5 m/s 743 mmHg 92%
    23:00 +9°C° 0 mm 5 m/s 743 mmHg 93%

    27 Setembro, Sexta-feira

    Tempo Temperatura Precipitação Vento Pressão Humidade
    00:00 +9°C° 0 mm 5 m/s 743 mmHg 93%
    01:00 +9°C° 0 mm 5 m/s 743 mmHg 93%
    02:00 +9°C° 0 mm 5 m/s 743 mmHg 93%
    03:00 +9°C° 0 mm 5 m/s 742 mmHg 93%
    04:00 +9°C° 0.3 mm 5 m/s 742 mmHg 93%
    05:00 +10°C° 0.3 mm 5 m/s 741 mmHg 94%
    06:00 +10°C° 0.3 mm 6 m/s 741 mmHg 94%
    07:00 +10°C° 0.6 mm 5 m/s 741 mmHg 93%
    08:00 +10°C° 0.6 mm 5 m/s 740 mmHg 92%
    09:00 +12°C° 0.6 mm 5 m/s 740 mmHg 92%
    10:00 +12°C° 0.8 mm 5 m/s 740 mmHg 91%
    11:00 +11°C° 0.8 mm 6 m/s 741 mmHg 91%
    12:00 +11°C° 0.8 mm 7 m/s 741 mmHg 90%
    13:00 +11°C° 0.8 mm 7 m/s 741 mmHg 89%
    14:00 +11°C° 0.8 mm 7 m/s 741 mmHg 89%
    15:00 +11°C° 0.8 mm 8 m/s 741 mmHg 88%
    16:00 +11°C° 0.2 mm 8 m/s 742 mmHg 89%
    17:00 +11°C° 0.2 mm 8 m/s 742 mmHg 89%
    18:00 +11°C° 0.2 mm 8 m/s 743 mmHg 89%
    19:00 +10°C° 0.1 mm 7 m/s 743 mmHg 90%
    20:00 +10°C° 0.1 mm 7 m/s 744 mmHg 90%
    21:00 +10°C° 0.1 mm 7 m/s 745 mmHg 91%
    22:00 +10°C° 0.3 mm 7 m/s 745 mmHg 91%
    23:00 +10°C° 0.3 mm 7 m/s 745 mmHg 91%

    28 Setembro, Sábado

    Tempo Temperatura Precipitação Vento Pressão Humidade
    00:00 +10°C° 0.3 mm 7 m/s 746 mmHg 92%
    01:00 +10°C° 0.3 mm 7 m/s 746 mmHg 91%
    02:00 +10°C° 0.3 mm 7 m/s 746 mmHg 91%
    03:00 +10°C° 0.3 mm 7 m/s 746 mmHg 90%
    04:00 +10°C° 0.2 mm 7 m/s 747 mmHg 90%
    05:00 +10°C° 0.2 mm 6 m/s 747 mmHg 91%
    06:00 +9°C° 0.2 mm 6 m/s 747 mmHg 91%
    07:00 +10°C° 0.2 mm 6 m/s 748 mmHg 90%
    08:00 +10°C° 0.2 mm 6 m/s 748 mmHg 89%
    09:00 +11°C° 0.2 mm 6 m/s 748 mmHg 89%
    10:00 +11°C° 0.2 mm 6 m/s 749 mmHg 87%
    11:00 +13°C° 0.2 mm 6 m/s 749 mmHg 85%
    12:00 +14°C° 0.2 mm 6 m/s 749 mmHg 83%
    13:00 +14°C° 0.2 mm 5 m/s 749 mmHg 84%
    14:00 +14°C° 0.2 mm 5 m/s 749 mmHg 84%
    15:00 +14°C° 0.2 mm 5 m/s 749 mmHg 84%
    16:00 +13°C° 0.1 mm 4 m/s 749 mmHg 87%
    17:00 +12°C° 0.1 mm 3 m/s 749 mmHg 90%
    18:00 +11°C° 0.1 mm 3 m/s 749 mmHg 93%
    19:00 +12°C° 0 mm 2 m/s 750 mmHg 93%
    20:00 +10°C° 0 mm 2 m/s 750 mmHg 93%
    21:00 +10°C° 0 mm 2 m/s 750 mmHg 94%
    22:00 +9°C° 0 mm 2 m/s 750 mmHg 94%
    23:00 +9°C° 0 mm 3 m/s 750 mmHg 95%
    Mostrar mais